DateTimeUTC,F1_A11,F1_S11,BsB_S11,BsG_S11,BsR_S11,BbsB_S11,BbsG_S11,BbsR_S11,BaB_A11,BaG_A11,BaR_A11,Tu_S11,T_S11,Uu_S11,U_S11,P_S11,T1_A11
2021-08-02T09:00:00Z,00000200,20000000,,,,,,,0000.16,-000.08,0000.16,17.8,24.8,05.1,03.3,0671.5,30.9
2021-08-02T09:01:00Z,00000200,20000000,,,,,,,0000.22,0000.04,0000.04,17.8,24.8,05.1,03.3,0671.5,30.9
2021-08-02T09:02:00Z,00000200,20000000,,,,,,,0000.14,0000.43,0000.46,17.8,24.8,05.1,03.3,0671.5,30.9
2021-08-02T09:03:00Z,00000200,60000000,,,,,,,0001.99,0001.82,0001.67,17.8,24.8,05.1,03.3,0671.5,31.0
2021-08-02T09:04:00Z,00000200,40000000,0007.85,0005.51,0003.42,0001.26,0000.78,0000.58,0002.17,0002.29,0001.37,17.9,24.6,06.2,04.1,0672.4,31.0
2021-08-02T09:05:00Z,00000200,00000000,0007.83,0004.98,0003.67,0001.37,0000.85,0000.72,0001.93,0001.96,0001.85,18.0,24.6,06.6,04.4,0672.5,31.0
2021-08-02T09:06:00Z,00000200,00000000,0008.14,0005.49,0003.74,0001.24,0000.77,0000.70,0002.35,0001.98,0001.52,18.0,24.5,06.9,04.6,0672.5,31.0
2021-08-02T09:07:00Z,00000200,00000000,0007.58,0005.66,0003.49,0000.89,0000.71,0000.27,0001.76,0001.36,0001.05,18.0,24.5,07.2,04.8,0672.5,31.0
2021-08-02T09:08:00Z,00000200,00000000,0007.08,0005.23,0002.86,0000.96,0000.74,0000.55,0001.18,0001.33,0000.88,18.0,24.5,07.2,04.8,0672.5,30.9
2021-08-02T09:09:00Z,00000200,00000000,0006.32,0005.11,0003.05,0001.00,0000.74,0000.50,0001.94,0001.08,0000.94,18.0,24.5,07.1,04.8,0672.5,31.0
2021-08-02T09:10:00Z,00000200,00000000,0007.11,0004.92,0003.22,0001.23,0000.79,0000.53,0001.20,0001.42,0001.17,18.0,24.5,07.2,04.8,0672.5,30.9
2021-08-02T09:11:00Z,00000200,00000000,0006.17,0004.39,0002.95,0001.13,0000.59,0000.74,0001.49,0001.68,0001.19,18.0,24.5,07.0,04.7,0672.5,30.9
2021-08-02T09:12:00Z,00000200,00000000,0006.59,0004.40,0002.83,0001.33,0000.50,0000.61,0001.35,0000.89,0000.61,18.0,24.5,06.9,04.7,0672.6,30.9
2021-08-02T09:13:00Z,00000200,00000000,0007.26,0004.95,0003.22,0000.84,0001.02,0000.62,0001.44,0001.13,0000.80,18.0,24.5,06.8,04.6,0672.6,30.9
2021-08-02T09:14:00Z,00000200,00000000,0007.07,0004.64,0002.87,0000.52,0000.94,0000.47,0001.39,0001.35,0001.42,18.0,24.5,06.8,04.5,0672.6,30.9
2021-08-02T09:15:00Z,00000200,00000000,0006.69,0004.81,0003.15,0000.37,0000.58,0000.42,0001.53,0001.44,0000.66,18.0,24.5,06.8,04.5,0672.6,30.9
2021-08-02T09:16:00Z,00000200,00000000,0006.98,0004.76,0002.63,0000.81,0000.84,0000.40,0001.83,0001.46,0001.38,18.0,24.5,06.8,04.6,0672.6,30.9
2021-08-02T09:17:00Z,00000200,00000000,0006.09,0004.61,0002.95,0000.21,0000.71,0000.59,0001.40,0001.51,0000.90,18.0,24.5,06.9,04.6,0672.6,30.9
2021-08-02T09:18:00Z,00000200,00000000,0007.56,0004.68,0002.78,0000.94,0000.91,0000.51,0000.94,0001.21,0001.05,18.0,24.5,07.1,04.8,0672.6,30.9
2021-08-02T09:19:00Z,00000200,00000000,0006.74,0004.20,0003.07,0000.65,0001.02,0000.40,0001.61,0001.55,0000.95,18.0,24.5,07.2,04.8,0672.6,31.0
2021-08-02T09:20:00Z,00000200,00000000,0006.98,0004.28,0002.63,0000.53,0000.63,0000.34,0001.77,0001.36,0001.29,18.0,24.4,07.2,04.9,0672.6,30.9
2021-08-02T09:21:00Z,00000200,00000000,0006.04,0004.52,0002.84,0000.53,0000.85,0000.50,0001.52,0001.61,0001.21,18.0,24.5,07.4,05.0,0673.0,31.0
2021-08-02T09:22:00Z,00000200,00000000,0005.64,0004.19,0002.88,0001.11,0000.92,0000.58,0001.41,0001.08,0000.92,18.0,24.4,07.5,05.0,0673.1,30.9
2021-08-02T09:23:00Z,00000200,00000000,0006.72,0003.91,0002.50,0000.64,0000.79,0000.43,0001.05,0000.95,0000.85,18.0,24.4,07.5,05.0,0673.1,30.9
2021-08-02T09:24:00Z,00000200,00000000,0006.38,0004.14,0002.92,0000.93,0000.72,0000.94,0001.46,0001.22,0000.90,18.0,24.4,07.4,05.0,0673.1,30.9
2021-08-02T09:25:00Z,00000200,00010000,0006.36,0004.44,0002.34,0000.71,0000.53,0000.33,0000.67,0001.25,0000.64,18.0,24.4,07.5,05.0,0673.1,31.0
2021-08-02T09:26:00Z,00000200,00000000,0006.18,0004.66,0002.66,0001.20,0000.59,0000.44,0001.54,0001.30,0001.04,18.0,24.4,07.5,05.0,0673.1,31.0
2021-08-02T09:27:00Z,00000200,00000000,0006.03,0004.34,0002.64,0001.04,0000.79,0000.60,0001.21,0001.08,0000.96,18.0,24.4,07.4,05.0,0673.1,31.0
2021-08-02T09:28:00Z,00000200,00000000,0006.73,0004.56,0002.90,0001.62,0000.67,0000.25,0003.57,0003.67,0003.30,18.0,24.4,07.3,04.9,0673.1,31.0
2021-08-02T09:29:00Z,00000200,00000000,0006.53,0004.86,0002.78,0001.01,0000.68,0000.64,0000.66,0000.11,0000.16,18.0,24.4,08.7,05.8,0673.2,30.9
2021-08-02T09:30:00Z,00000200,00000000,0006.88,0004.75,0002.89,0000.56,0000.88,0000.66,0001.41,0001.07,0000.46,18.0,24.4,07.8,05.2,0673.2,31.0
2021-08-02T09:31:00Z,00000200,00000000,0006.89,0004.38,0002.94,0000.65,0000.84,0000.33,0001.30,0001.25,0001.07,18.0,24.4,07.5,05.1,0673.2,30.9
2021-08-02T09:32:00Z,00000200,00000000,0006.58,0004.70,0003.13,0001.00,0000.71,0000.29,0001.58,0001.33,0000.60,18.0,24.4,07.5,05.0,0673.2,30.9
2021-08-02T09:33:00Z,00000200,00000000,0007.30,0004.77,0002.78,0000.46,0000.55,0000.33,0001.24,0001.42,0001.24,18.1,24.5,07.3,04.9,0673.2,30.9
2021-08-02T09:34:00Z,00000200,00000000,0007.48,0004.95,0002.99,0000.49,0000.89,0000.25,0001.60,0001.11,0000.88,18.2,24.5,07.3,05.0,0673.2,31.0
2021-08-02T09:35:00Z,00000200,00000000,0006.67,0004.66,0002.91,0000.99,0001.09,0000.50,0001.82,0001.78,0001.42,18.2,24.5,07.5,05.1,0673.3,31.0
2021-08-02T09:36:00Z,00000200,00000000,0005.96,0004.18,0003.00,0001.08,0000.79,0000.64,0001.13,0000.92,0000.96,18.3,24.5,07.5,05.1,0673.3,31.0
2021-08-02T09:37:00Z,00000200,00000000,0006.87,0004.45,0002.81,0000.46,0001.02,0000.51,0001.70,0001.61,0001.17,18.3,24.6,07.6,05.2,0673.4,31.0
2021-08-02T09:38:00Z,00000200,00000000,0005.62,0004.18,0002.33,0001.20,0000.73,0000.01,0001.69,0001.37,0001.21,18.2,24.5,07.8,05.3,0673.4,31.0
2021-08-02T09:39:00Z,00000200,00000000,0006.29,0004.35,0002.50,0000.92,0000.65,0000.61,0001.04,0001.25,0000.71,18.2,24.5,07.9,05.4,0673.4,31.0
2021-08-02T09:40:00Z,00000200,00000000,0005.85,0004.29,0002.58,0000.48,0000.87,0000.51,0001.37,0001.25,0001.15,18.2,24.5,08.0,05.5,0673.4,31.0
2021-08-02T09:41:00Z,00000200,00000000,0004.74,0003.78,0002.52,0000.16,0000.81,0000.52,0001.86,0002.01,0001.44,18.2,24.5,08.2,05.6,0673.5,31.0
2021-08-02T09:42:00Z,00000200,00000000,0005.49,0003.87,0002.20,0000.60,0000.68,0000.46,0000.96,0000.85,0001.00,18.2,24.5,08.6,05.9,0673.5,30.9
2021-08-02T09:43:00Z,00000200,00000000,0006.07,0003.65,0002.09,0000.85,0000.79,0000.28,0001.48,0001.09,0000.95,18.2,24.5,08.7,05.9,0673.5,31.0
2021-08-02T09:44:00Z,00000200,00000000,0005.98,0003.91,0002.75,0000.62,0000.66,0000.46,0001.09,0001.53,0000.84,18.2,24.5,09.0,06.1,0673.5,31.0
2021-08-02T09:45:00Z,00000200,00000000,0006.08,0004.26,0002.57,0001.52,0000.62,0000.52,0001.31,0000.98,0000.67,18.2,24.5,09.1,06.1,0673.5,31.0
2021-08-02T09:46:00Z,00000200,00000000,0006.24,0003.92,0002.84,0001.31,0000.78,0000.48,0001.44,0001.26,0001.10,18.2,24.5,09.0,06.1,0673.5,31.0
2021-08-02T09:47:00Z,00000200,00000000,0005.48,0003.96,0002.65,0001.18,0000.56,0000.47,0001.65,0001.35,0001.26,18.2,24.5,09.2,06.3,0673.5,31.0
2021-08-02T09:48:00Z,00000200,00000000,0006.03,0004.03,0002.80,0000.97,0000.84,0000.28,0001.43,0001.58,0000.93,18.2,24.5,09.3,06.3,0673.5,31.0
2021-08-02T09:49:00Z,00000200,00000000,0004.90,0003.93,0002.34,0001.32,0000.73,0000.45,0001.21,0001.11,0001.22,18.2,24.5,09.6,06.5,0673.6,31.0
2021-08-02T09:50:00Z,00000200,00000000,0005.84,0004.05,0002.48,0000.75,0000.76,0000.62,0001.81,0001.50,0001.29,18.2,24.5,10.1,06.8,0673.6,31.0
2021-08-02T09:51:00Z,00000200,00000000,0005.72,0003.74,0002.47,0000.60,0000.76,0000.57,0000.90,0001.00,0000.78,18.2,24.5,10.2,06.9,0673.6,31.0
2021-08-02T09:52:00Z,00000200,00000000,0005.74,0004.31,0002.48,0001.07,0000.88,0000.26,0001.44,0000.91,0000.33,18.2,24.5,10.0,06.8,0673.6,31.0
2021-08-02T09:53:00Z,00000200,00000000,0006.40,0004.11,0002.93,0000.61,0000.84,0000.56,0000.97,0000.84,0000.91,18.2,24.5,09.6,06.5,0673.6,30.9
2021-08-02T09:54:00Z,00000200,00000000,0006.38,0004.04,0002.62,0000.50,0000.60,0000.75,0000.81,0000.74,0000.72,18.2,24.5,09.3,06.3,0673.6,30.9
2021-08-02T09:55:00Z,00000200,00000000,0005.57,0003.72,0002.84,0000.49,0000.89,0000.52,0001.63,0001.98,0001.03,18.2,24.5,09.3,06.3,0673.7,30.9
2021-08-02T09:56:00Z,00000200,00000000,0006.02,0004.01,0002.50,0001.02,0000.89,0000.53,0001.11,0000.83,0000.75,18.2,24.5,09.4,06.4,0673.7,30.9
2021-08-02T09:57:00Z,00000200,40000000,,,,,,,-000.19,-000.27,-000.56,18.2,24.5,09.9,06.7,0673.7,31.0
2021-08-02T09:58:00Z,00000200,60000000,,,,,,,0000.54,0000.80,0000.90,18.0,24.6,09.1,06.0,0672.7,31.0
2021-08-02T09:59:00Z,00000200,20000000,,,,,,,0000.45,0000.08,0000.21,18.0,24.7,09.4,06.2,0672.7,30.9
